This is the latest recevied weather packets stored in our database for station/object KC8JWT. If no packets are shown the sender has not sent any weather packets the latest 10 day(s).
| Time | Temp. | Humidity | Pressure | Rain* | Wind** | Luminosity | Snow |
|---|---|---|---|---|---|---|---|
| 1777472595 | 18.89° C | 92% | 1009.8 hPa | 0 mm | - | 163 W/m² | - |
| 1777472292 | 18.89° C | 92% | 1009.4 hPa | 0 mm | - | 187 W/m² | - |
| 1777471988 | 18.33° C | 92% | 1009.6 hPa | 0 mm | - | 147 W/m² | - |
| 1777471684 | 18.33° C | 92% | 1009.6 hPa | 0 mm | - | 96 W/m² | - |
| 1777471381 | 18.89° C | 91% | 1009.7 hPa | 0 mm | - | 117 W/m² | - |
| 1777471077 | 18.89° C | 92% | 1009.8 hPa | 0 mm | - | 137 W/m² | - |
| 1777470775 | 18.89° C | 93% | 1009.4 hPa | 0 mm | - | 140 W/m² | - |
| 1777470471 | 18.89° C | 93% | 1009.5 hPa | 0 mm | - | 159 W/m² | - |
| 1777470167 | 18.33° C | 93% | 1009.8 hPa | 0 mm | - | 131 W/m² | - |
| 1777469863 | 18.33° C | 94% | 1009.9 hPa | 0 mm | - | 111 W/m² | - |
| 1777469560 | 18.33° C | 94% | 1009.9 hPa | 0 mm | - | 121 W/m² | - |
| 1777469260 | 18.89° C | 94% | 1009.7 hPa | 0 mm | - | 123 W/m² | - |
| 1777468954 | 18.89° C | 94% | 1010.1 hPa | 0 mm | - | 147 W/m² | - |
| 1777468651 | 18.89° C | 95% | 1009.7 hPa | 0 mm | - | 194 W/m² | - |
| 1777468348 | 18.89° C | 96% | 1009.8 hPa | 0 mm | - | 181 W/m² | - |
| 1777468044 | 18.89° C | 97% | 1010.1 hPa | 0 mm | - | 218 W/m² | - |
| 1777467740 | 18.33° C | 97% | 1009.9 hPa | 0 mm | - | 201 W/m² | - |
| 1777467435 | 18.33° C | 97% | 1009.8 hPa | 0 mm | - | 158 W/m² | - |
| 1777467131 | 18.33° C | 98% | 1010 hPa | 0 mm | - | 162 W/m² | - |
| 1777466828 | 17.78° C | 99% | 1009.9 hPa | 0 mm | - | 164 W/m² | - |
| 1777466526 | 17.78° C | 99% | 1010 hPa | 0 mm | - | 134 W/m² | - |
| 1777466222 | 17.78° C | 99% | 1009.9 hPa | 0 mm | - | 115 W/m² | - |
| 1777465918 | 17.78° C | 99% | 1010.1 hPa | 0 mm | - | 107 W/m² | - |
| 1777465615 | 17.22° C | 99% | 1009.7 hPa | 0 mm | - | 93 W/m² | - |
| 1777465310 | 17.22° C | 99% | 1009.7 hPa | 0 mm | - | 99 W/m² | - |
* Rain latest hour (hover to see other rain measurements)
** Current wind speed in m/s (hover to see current wind gust speed)